EDV5300 KATL-KCAE

Flight info

Callsign EDV5300
Flight time 0h 38m
Altitude 17000
Route GAIRY2 GAIRY KISTN CAE
Aircraft CRJ9/M-SDFGIRWY/S

Departure

Time 2026-05-08 02:18
Airport Hartsfield Jackson Atlanta International Airport (KATL)

Arrival

Time 2026-05-08 02:56
Airport Columbia Metropolitan Airport (KCAE)
Time Latitude Longitude Altitude Speed Heading
2026-05-08 01:55 33.64125 -84.43196 1005 ft 0 kts 283°
2026-05-08 02:04 33.64125 -84.43194 995 ft 2 kts 283°
2026-05-08 02:05 33.64122 -84.43180 1005 ft 2 kts 283°
2026-05-08 02:05 33.64119 -84.43166 1005 ft 2 kts 283°
2026-05-08 02:05 33.64117 -84.43152 1005 ft 2 kts 275°
2026-05-08 02:05 33.64120 -84.43139 1005 ft 2 kts 237°
2026-05-08 02:06 33.64128 -84.43130 1005 ft 2 kts 195°
2026-05-08 02:06 33.64140 -84.43129 1005 ft 2 kts 179°
2026-05-08 02:06 33.64148 -84.43129 1005 ft 2 kts 179°
2026-05-08 02:06 33.64150 -84.43129 1005 ft 0 kts 179°
2026-05-08 02:09 33.64134 -84.43129 1005 ft 5 kts 179°
2026-05-08 02:10 33.64088 -84.43129 1005 ft 9 kts 180°
2026-05-08 02:10 33.64013 -84.43130 1005 ft 12 kts 180°
2026-05-08 02:10 33.63926 -84.43130 1004 ft 13 kts 180°
2026-05-08 02:10 33.63846 -84.43130 1004 ft 9 kts 180°
2026-05-08 02:11 33.63797 -84.43130 1004 ft 6 kts 180°
2026-05-08 02:11 33.63754 -84.43130 1004 ft 7 kts 180°
2026-05-08 02:11 33.63705 -84.43129 1004 ft 7 kts 169°
2026-05-08 02:11 33.63665 -84.43080 1004 ft 10 kts 97°
2026-05-08 02:12 33.63663 -84.42986 1004 ft 12 kts 90°
2026-05-08 02:12 33.63663 -84.42885 1004 ft 12 kts 90°
2026-05-08 02:12 33.63662 -84.42780 1005 ft 13 kts 95°
2026-05-08 02:12 33.63654 -84.42675 1005 ft 13 kts 91°
2026-05-08 02:13 33.63654 -84.42568 1005 ft 13 kts 90°
2026-05-08 02:13 33.63655 -84.42456 1005 ft 14 kts 90°
2026-05-08 02:13 33.63655 -84.42338 1005 ft 14 kts 90°
2026-05-08 02:13 33.63654 -84.42216 1005 ft 15 kts 98°
2026-05-08 02:14 33.63610 -84.42109 1005 ft 15 kts 120°
2026-05-08 02:14 33.63581 -84.41992 1005 ft 15 kts 90°
2026-05-08 02:14 33.63581 -84.41864 1004 ft 16 kts 90°
2026-05-08 02:14 33.63580 -84.41729 1004 ft 16 kts 90°
2026-05-08 02:15 33.63581 -84.41590 1004 ft 17 kts 90°
2026-05-08 02:15 33.63581 -84.41448 1003 ft 18 kts 90°
2026-05-08 02:15 33.63581 -84.41299 1004 ft 18 kts 90°
2026-05-08 02:15 33.63581 -84.41149 1004 ft 18 kts 90°
2026-05-08 02:16 33.63581 -84.41015 1004 ft 15 kts 90°
2026-05-08 02:16 33.63572 -84.40926 1004 ft 8 kts 130°
2026-05-08 02:16 33.63525 -84.40910 1005 ft 7 kts 179°
2026-05-08 02:16 33.63479 -84.40914 1005 ft 4 kts 210°
2026-05-08 02:17 33.63471 -84.40942 1005 ft 5 kts 270°
2026-05-08 02:17 33.63471 -84.40994 1005 ft 10 kts 270°
2026-05-08 02:17 33.63472 -84.41303 1004 ft 67 kts 270°
2026-05-08 02:17 33.63472 -84.42093 1004 ft 120 kts 270°
2026-05-08 02:18 33.63474 -84.43265 1050 ft 155 kts 271°
2026-05-08 02:18 33.63471 -84.44590 1564 ft 161 kts 271°
2026-05-08 02:18 33.63388 -84.45947 2115 ft 169 kts 263°
2026-05-08 02:18 33.62933 -84.47327 2509 ft 186 kts 247°
2026-05-08 02:19 33.62299 -84.48750 2933 ft 199 kts 245°
2026-05-08 02:19 33.61603 -84.50243 3354 ft 210 kts 244°
2026-05-08 02:19 33.60851 -84.51834 3691 ft 231 kts 244°
2026-05-08 02:19 33.60023 -84.53571 4163 ft 247 kts 244°
2026-05-08 02:20 33.59155 -84.55409 4803 ft 257 kts 243°
2026-05-08 02:20 33.58290 -84.57227 6064 ft 248 kts 242°
2026-05-08 02:20 33.57072 -84.58695 7079 ft 261 kts 211°
2026-05-08 02:20 33.55231 -84.59048 8029 ft 279 kts 185°
2026-05-08 02:21 33.53263 -84.58844 8883 ft 287 kts 181°
2026-05-08 02:21 33.51262 -84.58515 9845 ft 293 kts 180°
2026-05-08 02:21 33.49233 -84.58107 10686 ft 300 kts 179°
2026-05-08 02:21 33.47164 -84.57632 11482 ft 306 kts 179°
2026-05-08 02:22 33.45084 -84.56812 12224 ft 332 kts 158°
2026-05-08 02:22 33.43242 -84.54999 12960 ft 350 kts 146°
2026-05-08 02:22 33.41448 -84.53002 13447 ft 367 kts 143°
2026-05-08 02:22 33.39760 -84.50722 14349 ft 375 kts 128°
2026-05-08 02:23 33.38714 -84.47798 15085 ft 387 kts 110°
2026-05-08 02:23 33.38013 -84.44666 15789 ft 393 kts 103°
2026-05-08 02:23 33.37743 -84.41391 16423 ft 400 kts 83°
2026-05-08 02:23 33.38321 -84.38098 16763 ft 412 kts 69°
2026-05-08 02:24 33.39187 -84.34739 16965 ft 433 kts 69°
2026-05-08 02:24 33.40034 -84.31185 17036 ft 453 kts 73°
2026-05-08 02:24 33.40694 -84.27529 17067 ft 454 kts 77°
2026-05-08 02:24 33.41248 -84.23858 17064 ft 454 kts 78°
2026-05-08 02:25 33.41809 -84.20083 17054 ft 453 kts 77°
2026-05-08 02:25 33.42375 -84.16425 17039 ft 453 kts 77°
2026-05-08 02:25 33.42971 -84.12721 17021 ft 452 kts 76°
2026-05-08 02:25 33.43580 -84.09049 17010 ft 452 kts 76°
2026-05-08 02:26 33.44194 -84.05359 17005 ft 452 kts 76°
2026-05-08 02:26 33.44808 -84.01657 16984 ft 452 kts 76°
2026-05-08 02:26 33.45419 -83.97956 16984 ft 452 kts 76°
2026-05-08 02:26 33.46023 -83.94261 16988 ft 452 kts 76°
2026-05-08 02:27 33.46626 -83.90581 16997 ft 452 kts 76°
2026-05-08 02:27 33.47232 -83.86885 16998 ft 452 kts 76°
2026-05-08 02:27 33.47842 -83.83176 16994 ft 453 kts 76°
2026-05-08 02:27 33.48445 -83.79477 16999 ft 453 kts 76°
2026-05-08 02:28 33.49048 -83.75770 16994 ft 453 kts 76°
2026-05-08 02:28 33.49645 -83.72098 16992 ft 453 kts 76°
2026-05-08 02:28 33.50251 -83.68371 16987 ft 453 kts 76°
2026-05-08 02:28 33.50852 -83.64668 16983 ft 453 kts 76°
2026-05-08 02:29 33.51447 -83.60957 16981 ft 454 kts 77°
2026-05-08 02:29 33.51984 -83.57222 16991 ft 454 kts 79°
2026-05-08 02:29 33.52467 -83.53526 16981 ft 454 kts 79°
2026-05-08 02:29 33.52973 -83.49783 16979 ft 455 kts 78°
2026-05-08 02:30 33.53486 -83.46038 16968 ft 455 kts 78°
2026-05-08 02:30 33.54003 -83.42302 16972 ft 455 kts 78°
2026-05-08 02:30 33.54509 -83.38555 16975 ft 455 kts 78°
2026-05-08 02:30 33.55019 -83.34801 16981 ft 455 kts 78°
2026-05-08 02:31 33.55523 -83.31050 16985 ft 455 kts 78°
2026-05-08 02:31 33.56026 -83.27307 16987 ft 455 kts 78°
2026-05-08 02:31 33.56526 -83.23560 16993 ft 455 kts 78°
2026-05-08 02:31 33.56858 -83.21086 16991 ft 455 kts 78°
2026-05-08 02:32 33.57341 -83.17453 16992 ft 455 kts 78°
2026-05-08 02:32 33.57840 -83.13704 16990 ft 455 kts 78°
2026-05-08 02:32 33.58169 -83.11223 16992 ft 455 kts 78°
2026-05-08 02:32 33.58828 -83.06253 16990 ft 455 kts 78°
2026-05-08 02:33 33.59324 -83.02504 16986 ft 455 kts 78°
2026-05-08 02:33 33.59819 -82.98750 16978 ft 455 kts 79°
2026-05-08 02:33 33.60312 -82.95001 16977 ft 455 kts 79°
2026-05-08 02:33 33.60805 -82.91253 16971 ft 455 kts 79°
2026-05-08 02:34 33.61296 -82.87495 16966 ft 455 kts 79°
2026-05-08 02:34 33.61781 -82.83746 16961 ft 455 kts 79°
2026-05-08 02:34 33.62272 -82.79992 16968 ft 455 kts 79°
2026-05-08 02:34 33.62760 -82.76244 16976 ft 455 kts 79°
2026-05-08 02:35 33.63073 -82.73804 16982 ft 455 kts 79°
2026-05-08 02:35 33.63566 -82.70000 16987 ft 455 kts 79°
2026-05-08 02:35 33.64050 -82.66254 16996 ft 455 kts 79°
2026-05-08 02:35 33.64533 -82.62482 16999 ft 455 kts 79°
2026-05-08 02:36 33.65017 -82.58724 17002 ft 455 kts 79°
2026-05-08 02:36 33.65498 -82.54976 17003 ft 455 kts 79°
2026-05-08 02:36 33.65980 -82.51209 17003 ft 455 kts 79°
2026-05-08 02:36 33.66459 -82.47455 16927 ft 455 kts 79°
2026-05-08 02:37 33.66929 -82.43740 16926 ft 455 kts 79°
2026-05-08 02:37 33.67412 -82.39935 16929 ft 455 kts 79°
2026-05-08 02:37 33.67883 -82.36223 16927 ft 455 kts 79°
2026-05-08 02:37 33.68354 -82.32470 16928 ft 455 kts 79°
2026-05-08 02:38 33.68828 -82.28712 16927 ft 455 kts 79°
2026-05-08 02:38 33.69297 -82.24961 16928 ft 455 kts 79°
2026-05-08 02:38 33.69769 -82.21194 16930 ft 455 kts 79°
2026-05-08 02:38 33.70240 -82.17442 16932 ft 455 kts 79°
2026-05-08 02:39 33.70709 -82.13679 16963 ft 455 kts 79°
2026-05-08 02:39 33.71176 -82.09912 16905 ft 453 kts 79°
2026-05-08 02:39 33.71636 -82.06194 16408 ft 448 kts 79°
2026-05-08 02:39 33.72093 -82.02502 15919 ft 446 kts 79°
2026-05-08 02:40 33.72545 -81.98830 15437 ft 443 kts 79°
2026-05-08 02:40 33.72994 -81.95183 14975 ft 440 kts 79°
2026-05-08 02:40 33.73437 -81.91566 14517 ft 437 kts 79°
2026-05-08 02:40 33.73880 -81.87973 14060 ft 433 kts 79°
2026-05-08 02:41 33.74320 -81.84400 13591 ft 430 kts 79°
2026-05-08 02:41 33.74802 -81.80871 13078 ft 425 kts 78°
2026-05-08 02:41 33.75323 -81.77415 12529 ft 417 kts 78°
2026-05-08 02:41 33.75828 -81.74016 12021 ft 409 kts 78°
2026-05-08 02:42 33.76316 -81.70672 11527 ft 403 kts 78°
2026-05-08 02:42 33.76793 -81.67374 11188 ft 398 kts 78°
2026-05-08 02:42 33.77264 -81.64161 11029 ft 394 kts 78°
2026-05-08 02:42 33.77740 -81.60895 10958 ft 389 kts 78°
2026-05-08 02:43 33.78198 -81.57731 10938 ft 390 kts 79°
2026-05-08 02:43 33.78663 -81.54521 10925 ft 390 kts 79°
2026-05-08 02:43 33.79126 -81.51312 10922 ft 389 kts 79°
2026-05-08 02:43 33.79595 -81.48110 10895 ft 389 kts 78°
2026-05-08 02:44 33.80061 -81.44909 10906 ft 388 kts 79°
2026-05-08 02:44 33.80521 -81.41708 10897 ft 388 kts 79°
2026-05-08 02:44 33.80969 -81.38512 10914 ft 388 kts 80°
2026-05-08 02:44 33.81195 -81.35275 10896 ft 388 kts 89°
2026-05-08 02:45 33.81206 -81.32067 10906 ft 374 kts 90°
2026-05-08 02:45 33.81178 -81.29006 10853 ft 357 kts 91°
2026-05-08 02:45 33.81138 -81.26029 10475 ft 354 kts 91°
2026-05-08 02:45 33.81096 -81.23080 10115 ft 351 kts 91°
2026-05-08 02:46 33.81084 -81.22092 9995 ft 350 kts 91°
2026-05-08 02:46 33.81077 -81.21556 9937 ft 349 kts 91°
2026-05-08 02:46 33.81038 -81.18561 9544 ft 345 kts 91°
2026-05-08 02:46 33.80862 -81.15706 9152 ft 339 kts 101°
2026-05-08 02:47 33.80439 -81.12970 8773 ft 335 kts 103°
2026-05-08 02:47 33.79967 -81.10233 8346 ft 332 kts 104°
2026-05-08 02:47 33.79480 -81.07527 7912 ft 329 kts 104°
2026-05-08 02:47 33.78988 -81.04857 7462 ft 325 kts 104°
2026-05-08 02:48 33.78499 -81.02215 6994 ft 323 kts 103°
2026-05-08 02:48 33.78000 -80.99615 6503 ft 315 kts 104°
2026-05-08 02:48 33.77517 -80.97079 5980 ft 307 kts 101°
2026-05-08 02:48 33.77578 -80.94578 5419 ft 296 kts 69°
2026-05-08 02:49 33.78443 -80.92743 5059 ft 275 kts 40°
2026-05-08 02:49 33.79597 -80.91699 4787 ft 256 kts 22°
2026-05-08 02:49 33.81162 -80.90836 4431 ft 241 kts 14°
2026-05-08 02:49 33.82678 -80.90128 4095 ft 227 kts 13°
2026-05-08 02:50 33.84130 -80.89483 3744 ft 218 kts 12°
2026-05-08 02:50 33.85512 -80.88892 3441 ft 203 kts 12°
2026-05-08 02:50 33.86799 -80.88726 3010 ft 181 kts 339°
2026-05-08 02:50 33.87938 -80.89290 2548 ft 175 kts 333°
2026-05-08 02:51 33.88896 -80.90111 2133 ft 168 kts 303°
2026-05-08 02:51 33.89078 -80.91514 1981 ft 181 kts 261°
2026-05-08 02:51 33.88797 -80.92983 1974 ft 178 kts 276°
2026-05-08 02:51 33.89127 -80.94375 1953 ft 172 kts 296°
2026-05-08 02:52 33.89671 -80.95616 1924 ft 163 kts 304°
2026-05-08 02:52 33.90273 -80.96732 1910 ft 155 kts 305°
2026-05-08 02:52 33.90705 -80.97845 1911 ft 140 kts 296°
2026-05-08 02:52 33.91018 -80.98921 1824 ft 135 kts 293°
2026-05-08 02:53 33.91266 -80.99953 1829 ft 121 kts 291°
2026-05-08 02:53 33.91484 -81.00911 1694 ft 118 kts 292°
2026-05-08 02:53 33.91721 -81.01853 1548 ft 117 kts 293°
2026-05-08 02:53 33.91963 -81.02780 1388 ft 115 kts 293°
2026-05-08 02:54 33.92220 -81.03777 1261 ft 135 kts 291°
2026-05-08 02:54 33.92451 -81.04877 1235 ft 133 kts 288°
2026-05-08 02:54 33.92681 -81.05955 1118 ft 134 kts 287°
2026-05-08 02:54 33.92926 -81.06991 1017 ft 126 kts 288°
2026-05-08 02:55 33.93168 -81.08006 733 ft 127 kts 284°
2026-05-08 02:55 33.93598 -81.10015 466 ft 121 kts 283°
2026-05-08 02:55 33.93811 -81.11011 277 ft 124 kts 284°
2026-05-08 02:56 33.94015 -81.11936 229 ft 96 kts 284°
2026-05-08 02:56 33.94142 -81.12526 229 ft 56 kts 284°
2026-05-08 02:56 33.94219 -81.12876 229 ft 25 kts 285°
2026-05-08 02:56 33.94289 -81.13049 227 ft 20 kts 305°
2026-05-08 02:57 33.94370 -81.13160 227 ft 13 kts 315°
2026-05-08 02:57 33.94443 -81.13228 227 ft 13 kts 356°
2026-05-08 02:57 33.94479 -81.13153 227 ft 12 kts 103°
2026-05-08 02:57 33.94457 -81.13051 229 ft 13 kts 105°
2026-05-08 02:58 33.94432 -81.12940 227 ft 14 kts 105°
2026-05-08 02:58 33.94409 -81.12835 229 ft 12 kts 103°
2026-05-08 02:58 33.94449 -81.12766 227 ft 11 kts 15°
2026-05-08 02:58 33.94517 -81.12745 227 ft 7 kts 14°
2026-05-08 02:59 33.94553 -81.12714 227 ft 5 kts 82°
2026-05-08 02:59 33.94542 -81.12670 229 ft 5 kts 116°
2026-05-08 02:59 33.94535 -81.12653 228 ft 3 kts 115°
2026-05-08 02:59 33.94530 -81.12642 227 ft 0 kts 116°
2026-05-08 03:00 33.94529 -81.12639 227 ft 0 kts 116°